Volver al catálogo

DMSP 5D-2 F13 DEB

ActivoSSO
NORAD 40513·DEBRIS·🇺🇸 United States

Lanzado Mar 24, 1995 desde Vandenberg Space Force Base

Loading…

Próximos Pases (próximas 24 horas)

TLE

ActualizadoSource: Space-Track

Época: Sep 13, 2026, 06:37 UTC

1 40513U 95015CZ  26256.27606635  .00000634  00000-0  30178-3 0  9994
2 40513  98.7592 275.8305 0006085 214.9188 145.1591 14.22865118594098

Sigue DMSP 5D-2 F13 DEB en tiempo real con AllMySat

Download on the App Store